Regional Weather Roundup
Issued by NWS

Home | Current Version | Previous Version | Graphics & Text | Print | Product List | Glossary On
Versions: 1 2 3 4 5 6 7 8 9 10 11 12 13 14 15 16 17 18 19 20 21 22 23 24 25 26 27 28 29 30 31 32 33 34 35 36 37 38 39 40 41 42 43 44 45 46 47 48 49 50
384
ASUS43 KOAX 101302
RWRNE

WEATHER ROUNDUP FOR NEBRASKA
NATIONAL WEATHER SERVICE OMAHA NE
700 AM CST WED FEB 10 2016

NOTES: SATELLITE DATA IS BEING USED TO AUGMENT CLOUD COVER ABOVE
       12000 FEET.
       "FAIR" INDICATES FEW OR NO CLOUDS BELOW 12,000 FEET WITH NO
       SIGNIFICANT WEATHER AND/OR OBSTRUCTIONS TO VISIBILITY.

  * THESE STATIONS DO NOT REPORT WEATHER SUCH AS RAIN...SNOW OR FOG.

NEZ001>004-019>022-054>056-101400-
NEBRASKA PANHANDLE

CITY           SKY/WX    TMP DP  RH WIND       PRES   REMARKS
SCOTTSBLUFF    CLOUDY    36  25  64 NW16      30.03F WCI  26
ALLIANCE       CLOUDY    31  23  72 W13       29.99F WCI  21
CHADRON        CLOUDY    30  24  78 W6        29.99S WCI  24
KIMBALL        CLEAR     37  24  57 W18       30.08S WCI  27
SIDNEY         CLOUDY    25  19  78 SW7       30.05F WCI  17
$$

NEZ057>060-069>072-079>082-101400-
SOUTHWEST NEBRASKA

CITY           SKY/WX    TMP DP  RH WIND       PRES   REMARKS
NORTH PLATTE   CLEAR     27  22  81 W9        29.97F WCI  18
IMPERIAL       CLOUDY    35  23  61 W16       30.03S WCI  25
LEXINGTON      CLOUDY    24  21  89 NW8       29.96F WCI  15
MCCOOK         CLOUDY    28  23  81 W10       30.02F WCI  19
$$

NEZ005>010-023>029-035>040-094-101400-
NORTH CENTRAL NEBRASKA

CITY           SKY/WX    TMP DP  RH WIND       PRES   REMARKS
VALENTINE      CLEAR     33  27  78 W13       29.88F WCI  24
AINSWORTH      CLEAR     33  28  83 W6        29.88S WCI  27
BROKEN BOW     CLEAR     31  24  75 W8        29.90F WCI  23
ORD            CLOUDY    18  16  92 CALM      29.89F
$$

NEZ041-046>049-061>064-073>077-083>087-101400-
SOUTH CENTRAL NEBRASKA

CITY           SKY/WX    TMP DP  RH WIND       PRES   REMARKS
GRAND ISLAND   CLOUDY    21  18  88 SW7       29.94F WCI  12
AURORA         CLEAR     24  21  87 S9        29.94F WCI  15
HASTINGS       CLOUDY    26  21  81 SW6       29.94F WCI  19
HEBRON         CLEAR     24  19  80 CALM      30.01F
YORK           CLEAR     23  19  86 S12       29.96F WCI  12
$$

NEZ011>018-030>034-042>045-101400-
NORTHEAST NEBRASKA

CITY           SKY/WX    TMP DP  RH WIND       PRES   REMARKS
NORFOLK        CLOUDY    25  20  81 S6        29.92F WCI  18
BLAIR          CLOUDY    26  18  72 S12       30.00F WCI  16
COLUMBUS *     CLOUDY    25  12  58 SE6       29.95F WCI  18
FREMONT        CLOUDY    26  17  69 S8        29.99F WCI  17
$$

NEZ050>053-065>068-078-088>093-101400-
SOUTHEAST NEBRASKA

CITY           SKY/WX    TMP DP  RH WIND       PRES   REMARKS
LINCOLN        CLOUDY    27  17  66 S10       30.01F WCI  17
OMAHA EPPLEY   CLOUDY    25  19  78 SE10      30.04F WCI  15
BEATRICE       CLOUDY    27  15  61 S12       30.03S WCI  16
FALLS CITY     CLOUDY    26  17  68 S6        30.08F WCI  19
NEBRASKA CITY  CLOUDY    26  19  75 S13       30.03F WCI  15
$$

NEZ044-045-051>053-067-101400-
OMAHA AREA

CITY           SKY/WX    TMP DP  RH WIND       PRES   REMARKS
OMAHA EPPLEY   CLOUDY    25  19  78 SE10      30.04F WCI  15
BLAIR          CLOUDY    26  18  72 S12       30.00F WCI  16
FREMONT        CLOUDY    26  17  69 S8        29.99F WCI  17
OFFUTT AFB     MOCLDY    26  20  78 SE7       30.03F WCI  18
WAHOO          FAIR      26  19  77 S8        30.00F WCI  17
$$




USA.gov is the U.S. government's official web portal to all federal, state and local government web resources and services.